User: anonymous   Login
Location: Altleiningen
(49.5078°N, 8.0741°E)
Time: 15:38:39
(UTC+00:00)
Language:

Cosmos 1898 Rocket - Orbit

View from above orbital plane
View from above orbital plane
View from above satellite
View from above satellite

Ground track
Ground track

The orbit data is extracted from the following two-line orbital elements,

1 18586U 87098B   21132.15012682  .00000058  00000-0  28547-4 0  9997
2 18586  74.0065 191.0690 0022258 271.1000  88.7603 14.36948675752029
Epoch (UTC): 12 May 2021 03:36:10
Eccentricity: 0.0022258
inclination: 74.0065°
perigee height: 752 km
apogee height: 784 km
right ascension of ascending node: 191.0690°
argument of perigee: 271.1000°
revolutions per day: 14.36948675
mean anomaly at epoch: 88.7603°
orbit number at epoch: 75202

The dashed part of the orbit path shows where the satellite is in the earth's shadow,  

DLR